KB1WCR Weather Reports


time (UTC)temp
C
wind
direction
speed
KPH
gust
KPH
rain 1hr
cm
rain 24hr
cm
rain mn
cm
humidity
%
barometer
mb
20260903121654 15 339 0.0 0.0 0.00 0.15 0.15 99 1016.4
20260903121150 15 321 0.0 1.6 0.18 0.15 0.15 99 1016.5
20260903120649 15 321 0.0 0.0 0.30 0.15 0.15 99 1016.6
20260903120143 15 305 0.0 0.0 0.13 0.13 0.13 99 1016.7
20260903115641 15 306 0.0 0.0 0.00 0.10 0.10 99 1016.9
20260903115137 15 306 0.0 0.0 0.00 0.10 0.10 99 1016.9
20260903114632 15 298 0.0 0.0 0.00 0.10 0.10 99 1016.8
20260903114127 15 312 0.0 0.0 0.00 0.10 0.10 99 1016.7
20260903113623 15 321 0.0 0.0 0.00 0.10 0.10 99 1016.8
20260903113119 15 310 0.0 0.0 0.00 0.10 0.10 99 1016.6
20260903112615 15 308 0.0 0.0 0.00 0.10 0.10 99 1016.5
20260903112114 15 305 0.0 0.0 0.00 0.10 0.10 99 1016.4
20260903111614 15 317 0.0 0.0 0.00 0.10 0.10 99 1016.5
20260903111109 15 305 0.0 0.0 0.00 0.10 0.10 99 1016.4
20260903110605 15 324 0.0 0.0 0.00 0.10 0.10 99 1016.5
20260903110100 15 302 0.0 0.0 0.00 0.10 0.10 99 1016.3
20260903105555 15 309 0.0 0.0 0.00 0.10 0.10 99 1016.3
20260903105049 15 310 0.0 0.0 0.00 0.10 0.10 99 1016.4
20260903104544 15 310 0.0 0.0 0.00 0.10 0.10 99 1016.4
20260903104040 15 321 0.0 0.0 0.00 0.10 0.10 99 1016.6
20260903103535 15 323 0.0 0.0 0.00 0.10 0.10 99 1016.5
20260903103032 15 326 0.0 0.0 0.00 0.10 0.10 99 1016.5
20260903102527 15 306 0.0 0.0 0.00 0.10 0.10 99 1016.8
20260903102026 15 305 0.0 0.0 0.00 0.10 0.10 99 1016.8
20260903101520 15 283 0.0 0.0 0.00 0.10 0.10 99 1016.8
20260903101016 16 287 0.0 0.0 0.18 0.10 0.10 99 1016.9
20260903100510 16 308 0.0 0.0 0.18 0.10 0.10 99 1016.9
20260903100009 16 307 0.0 0.0 0.00 0.08 0.08 99 1016.7
20260903095502 16 296 0.0 0.0 0.00 0.08 0.08 99 1016.7
20260903094957 16 309 0.0 0.0 0.00 0.08 0.08 99 1016.7
20260903094457 16 292 0.0 0.0 0.00 0.08 0.08 99 1016.8
20260903093953 16 306 0.0 0.0 0.00 0.08 0.08 99 1016.6
20260903093448 16 333 0.0 0.0 0.00 0.08 0.08 99 1016.8
20260903092943 16 301 0.0 0.0 0.00 0.08 0.08 99 1016.9
20260903092437 16 317 0.0 0.0 0.00 0.08 0.08 99 1017.1
20260903091937 16 345 0.0 0.0 0.13 0.08 0.08 99 1017.3
20260903091435 16 330 0.0 0.0 0.30 0.08 0.08 99 1017.1
20260903090930 16 304 0.0 0.0 0.18 0.05 0.05 99 1017.2
20260903090426 16 307 0.0 0.0 0.18 0.05 0.05 99 1017.4
20260903085924 16 309 0.0 0.0 0.13 0.03 0.03 99 1017.3
20260903085423 16 298 0.0 0.0 0.00 0.00 0.00 99 1017.4
20260903084923 16 313 0.0 0.0 0.00 0.00 0.00 99 1017.3
20260903084421 16 300 0.0 0.0 0.00 0.00 0.00 99 1017.5
20260903083916 16 307 0.0 0.0 0.00 0.00 0.00 99 1017.4
20260903083413 16 306 0.0 0.0 0.00 0.00 0.00 99 1017.2
20260903082911 16 301 0.0 0.0 0.00 0.00 0.00 99 1017.2
20260903082407 16 313 0.0 0.0 0.00 0.00 0.00 99 1017.1
20260903081902 16 310 0.0 0.0 0.00 0.00 0.00 99 1017.0
20260903081357 16 308 0.0 0.0 0.00 0.00 0.00 99 1016.9
20260903080853 16 301 0.0 0.0 0.00 0.00 0.00 99 1017.0
20260903080350 16 312 0.0 0.0 0.00 0.00 0.00 99 1016.9
20260903075849 16 306 0.0 0.0 0.00 0.00 0.00 99 1017.1
20260903075345 16 312 0.0 0.0 0.00 0.00 0.00 99 1017.0
20260903074839 16 315 0.0 0.0 0.00 0.00 0.00 99 1017.2
20260903074333 16 312 0.0 0.0 0.00 0.00 0.00 99 1017.3
20260903073829 16 310 0.0 0.0 0.00 0.00 0.00 99 1017.4
20260903073324 16 305 0.0 0.0 0.00 0.00 0.00 99 1017.3
20260903072820 16 328 0.0 0.0 0.00 0.00 0.00 99 1017.3
20260903072316 16 7 1.6 3.2 0.00 0.00 0.00 99 1017.3
20260903071812 16 307 0.0 0.0 0.00 0.00 0.00 99 1017.4
20260903071308 16 313 0.0 0.0 0.00 0.00 0.00 99 1017.5
20260903070802 16 8 0.0 1.6 0.00 0.00 0.00 99 1017.7
20260903070258 16 6 0.0 1.6 0.00 0.00 0.00 99 1017.7
20260903065753 16 311 0.0 0.0 0.00 0.00 0.00 99 1018.0
20260903065252 16 324 0.0 0.0 0.00 0.00 0.00 99 1018.1
20260903064751 16 311 0.0 0.0 0.00 0.00 0.00 99 1018.3
20260903064247 16 342 0.0 0.0 0.00 0.00 0.00 99 1018.4
20260903063743 16 317 0.0 0.0 0.00 0.00 0.00 99 1018.4
20260903063237 16 299 0.0 0.0 0.00 0.00 0.00 99 1018.6
20260903062733 16 297 0.0 0.0 0.00 0.00 0.00 99 1018.5
20260903062227 16 296 0.0 0.0 0.00 0.00 0.00 99 1018.7
20260903061724 16 313 0.0 0.0 0.00 0.00 0.00 99 1018.6
20260903061222 16 318 0.0 0.0 0.00 0.00 0.00 99 1018.8
20260903060717 16 306 0.0 0.0 0.00 0.00 0.00 99 1018.8
20260903060212 16 308 0.0 0.0 0.00 0.00 0.00 99 1018.8
20260903055709 16 327 0.0 0.0 0.00 0.00 0.00 99 1018.9
20260903055208 15 303 0.0 0.0 0.00 0.00 0.00 99 1019.2
20260903054703 15 308 0.0 0.0 0.00 0.00 0.00 99 1019.2
20260903054159 15 302 0.0 0.0 0.00 0.00 0.00 99 1019.1
20260903053655 15 314 0.0 0.0 0.00 0.00 0.00 99 1019.1
20260903053150 15 300 0.0 0.0 0.00 0.00 0.00 99 1019.2
20260903052646 15 306 0.0 0.0 0.00 0.00 0.00 99 1019.0
20260903052141 15 315 0.0 0.0 0.00 0.00 0.00 99 1019.3
20260903051636 15 314 0.0 0.0 0.00 0.00 0.00 99 1019.3
20260903051131 15 310 0.0 0.0 0.00 0.00 0.00 99 1019.2
20260903050626 15 314 0.0 0.0 0.00 0.00 0.00 99 1019.3
20260903050121 15 310 0.0 0.0 0.00 0.00 0.00 99 1019.2
20260903045620 15 304 0.0 0.0 0.00 0.00 0.00 99 1019.4
20260903045117 15 314 0.0 0.0 0.00 0.00 0.00 99 1019.4
20260903044612 15 318 0.0 0.0 0.00 0.00 0.00 99 1019.4
20260903044108 15 301 0.0 0.0 0.00 0.00 0.00 99 1019.4
20260903043604 15 300 0.0 0.0 0.00 0.00 0.00 99 1019.5
20260903043103 15 300 0.0 0.0 0.00 0.00 0.00 99 1019.5
20260903042558 15 349 0.0 1.6 0.00 0.00 0.00 99 1019.5
20260903042053 15 313 0.0 0.0 0.00 0.00 0.00 99 1019.6
20260903041550 15 316 0.0 0.0 0.00 0.00 0.00 99 1019.9
20260903041045 15 316 0.0 0.0 0.00 0.00 0.00 99 1020.0
20260903040543 15 312 0.0 0.0 0.00 0.00 0.00 99 1020.1
20260903040040 15 304 0.0 0.0 0.00 0.00 0.00 99 1020.1
20260903035535 15 305 0.0 0.0 0.00 0.00 0.00 99 1020.2
20260903035031 15 299 0.0 0.0 0.00 0.00 0.00 99 1020.2
20260903034526 15 310 0.0 0.0 0.00 0.00 0.00 99 1020.2
20260903034021 15 321 0.0 0.0 0.00 0.00 0.00 99 1020.2
20260903033515 15 304 0.0 0.0 0.00 0.00 0.00 99 1020.3
20260903033011 15 304 0.0 0.0 0.00 0.00 0.00 99 1020.6
20260903032506 15 307 0.0 0.0 0.00 0.00 0.00 99 1020.3
20260903032000 15 306 0.0 0.0 0.00 0.00 0.00 99 1020.3
20260903031455 15 307 0.0 0.0 0.00 0.00 0.00 99 1020.4
20260903030950 15 320 0.0 0.0 0.00 0.00 0.00 99 1020.4
20260903030446 15 302 0.0 0.0 0.00 0.00 0.00 99 1020.7
20260903025941 15 309 0.0 0.0 0.00 0.00 0.00 99 1020.4
20260903025431 15 300 0.0 0.0 0.00 0.00 0.00 99 1020.4
20260903024926 15 342 0.0 0.0 0.00 0.00 0.00 99 1020.2
20260903024420 15 312 0.0 0.0 0.00 0.00 0.00 99 1020.4
20260903023915 15 312 0.0 0.0 0.00 0.00 0.00 99 1020.5
20260903023411 15 343 0.0 0.0 0.00 0.00 0.00 99 1020.6
20260903022907 15 327 0.0 0.0 0.00 0.00 0.00 99 1020.7
20260903022405 15 311 0.0 0.0 0.00 0.00 0.00 99 1020.7
20260903021904 15 310 0.0 0.0 0.00 0.00 0.00 99 1020.7
20260903021359 15 306 0.0 0.0 0.00 0.00 0.00 99 1020.9
20260903020859 15 341 0.0 0.0 0.00 0.00 0.00 99 1020.8
20260903020355 15 296 0.0 0.0 0.00 0.00 0.00 99 1020.9
20260903015849 15 305 0.0 0.0 0.00 0.00 0.00 99 1021.0
20260903015344 15 302 0.0 0.0 0.00 0.00 0.00 99 1020.8
20260903014839 15 288 0.0 0.0 0.00 0.00 0.00 99 1020.8
20260903014334 15 50 0.0 0.0 0.00 0.00 0.00 99 1020.8
20260903013829 15 299 0.0 0.0 0.00 0.00 0.00 99 1020.8
20260903013328 15 283 0.0 0.0 0.00 0.00 0.00 99 1020.8
20260903012828 15 303 0.0 0.0 0.00 0.00 0.00 99 1020.9
20260903012321 15 302 0.0 0.0 0.00 0.00 0.00 99 1020.9
20260903011820 15 281 0.0 0.0 0.00 0.00 0.00 99 1020.8
20260903011315 15 333 0.0 0.0 0.00 0.00 0.00 99 1020.8
20260903010810 15 306 0.0 0.0 0.00 0.00 0.00 99 1020.9
20260903010306 15 75 1.6 3.2 0.00 0.00 0.00 99 1020.8
20260903005804 15 309 0.0 0.0 0.00 0.00 0.00 99 1020.7
20260903005259 15 276 0.0 0.0 0.00 0.00 0.00 99 1020.6
20260903004755 15 17 1.6 1.6 0.00 0.00 0.00 99 1020.5
20260903004250 15 303 0.0 1.6 0.00 0.00 0.00 99 1020.5
20260903003746 15 311 0.0 0.0 0.00 0.00 0.00 99 1020.5
20260903003240 15 301 0.0 0.0 0.00 0.00 0.00 99 1020.6
20260903002735 15 333 0.0 0.0 0.00 0.00 0.00 99 1020.7
20260903002229 15 336 0.0 0.0 0.00 0.00 0.00 99 1020.6
20260903001725 15 342 0.0 0.0 0.00 0.00 0.00 99 1020.6
20260903001225 15 287 0.0 0.0 0.00 0.00 0.00 99 1020.5
20260903000720 15 303 0.0 0.0 0.00 0.00 0.00 99 1020.6
20260903000219 15 240 1.6 1.6 0.00 0.00 0.00 99 1020.8
20260902235718 15 315 0.0 0.0 0.00 0.00 0.00 98 1020.9
20260902235214 15 280 0.0 0.0 0.00 0.00 0.00 98 1021.0
20260902234713 15 2 1.6 1.6 0.00 0.00 0.00 98 1021.0
20260902234212 15 323 1.6 1.6 0.00 0.00 0.00 97 1020.9
20260902233706 16 311 0.0 0.0 0.00 0.00 0.00 97 1021.1
20260902233201 16 287 0.0 0.0 0.00 0.00 0.00 97 1021.3
20260902232700 16 315 0.0 0.0 0.00 0.00 0.00 97 1021.3
20260902232159 16 339 0.0 0.0 0.00 0.00 0.00 96 1021.4
20260902231653 16 324 0.0 0.0 0.00 0.00 0.00 96 1021.4
20260902231148 16 290 0.0 0.0 0.00 0.00 0.00 96 1021.5
20260902230644 16 315 0.0 0.0 0.00 0.00 0.00 95 1021.5
20260902230143 16 304 0.0 0.0 0.00 0.00 0.00 95 1021.5
20260902225638 16 331 0.0 0.0 0.00 0.00 0.00 94 1021.4
20260902225137 16 317 0.0 0.0 0.00 0.00 0.00 94 1021.4
20260902224636 16 330 0.0 0.0 0.00 0.00 0.00 94 1021.4
20260902224132 16 350 0.0 0.0 0.00 0.00 0.00 93 1021.7
20260902223628 16 3 1.6 3.2 0.00 0.00 0.00 93 1021.7
20260902223127 17 356 1.6 1.6 0.00 0.00 0.00 92 1021.8
20260902222626 17 303 0.0 0.0 0.00 0.00 0.00 92 1022.0
20260902222125 17 336 0.0 0.0 0.00 0.00 0.00 91 1021.9
20260902221619 17 287 0.0 0.0 0.00 0.00 0.00 91 1021.7
20260902221114 17 262 0.0 0.0 0.00 0.00 0.00 90 1021.7
20260902220610 17 289 1.6 1.6 0.00 0.00 0.00 90 1021.6
20260902220104 17 322 0.0 0.0 0.00 0.00 0.00 90 1021.7
20260902215601 17 351 0.0 0.0 0.00 0.00 0.00 90 1021.8
20260902215055 17 284 1.6 1.6 0.00 0.00 0.00 89 1021.7
20260902214550 17 12 3.2 4.8 0.00 0.00 0.00 88 1021.8
20260902214049 17 330 0.0 0.0 0.00 0.00 0.00 88 1021.8
20260902213545 17 15 1.6 3.2 0.00 0.00 0.00 88 1022.0
20260902213044 17 43 1.6 1.6 0.00 0.00 0.00 88 1021.9
20260902212539 17 330 3.2 4.8 0.00 0.00 0.00 87 1021.7
20260902212030 18 89 1.6 1.6 0.00 0.00 0.00 86 1022.0
20260902211526 18 326 0.0 1.6 0.00 0.00 0.00 87 1021.9
20260902211020 18 348 0.0 1.6 0.00 0.00 0.00 86 1021.8
20260902210514 18 317 0.0 0.0 0.00 0.00 0.00 85 1021.8
20260902210013 18 349 1.6 1.6 0.00 0.00 0.00 85 1021.7
20260902205508 17 11 1.6 1.6 0.00 0.00 0.00 85 1021.8
20260902205003 18 251 3.2 3.2 0.00 0.00 0.00 85 1022.2
20260902204502 18 330 1.6 3.2 0.00 0.00 0.00 85 1022.3
20260902203958 18 212 1.6 1.6 0.00 0.00 0.00 84 1022.2
20260902203454 18 240 3.2 3.2 0.00 0.00 0.00 83 1022.4
20260902202952 18 299 0.0 0.0 0.00 0.00 0.00 84 1022.3
20260902202448 18 3 4.8 6.4 0.00 0.00 0.00 84 1022.2
20260902201945 18 327 1.6 1.6 0.00 0.00 0.00 83 1022.1
20260902201440 18 284 1.6 1.6 0.00 0.00 0.00 83 1022.3
20260902200940 18 187 0.0 1.6 0.00 0.00 0.00 84 1022.3
20260902200435 18 304 3.2 3.2 0.00 0.00 0.00 83 1022.2
20260902195930 18 339 0.0 1.6 0.00 0.00 0.00 83 1022.1
20260902195426 18 326 6.4 9.7 0.00 0.00 0.00 82 1022.5
20260902194920 18 263 1.6 3.2 0.00 0.00 0.00 83 1022.7
20260902194419 18 7 1.6 1.6 0.00 0.00 0.00 83 1022.5
20260902193915 18 57 4.8 6.4 0.00 0.00 0.00 82 1022.7
20260902193411 18 48 6.4 9.7 0.00 0.00 0.00 81 1022.9
20260902192909 18 318 0.0 1.6 0.00 0.00 0.00 83 1022.8
20260902192409 18 11 3.2 4.8 0.00 0.00 0.00 83 1022.8
20260902191908 18 259 1.6 3.2 0.00 0.00 0.00 82 1022.7
20260902191404 18 205 1.6 3.2 0.00 0.00 0.00 83 1022.8
20260902190858 18 60 4.8 4.8 0.00 0.00 0.00 83 1022.8
20260902190353 18 68 1.6 3.2 0.00 0.00 0.00 83 1022.8
20260902185849 18 352 3.2 3.2 0.00 0.00 0.00 83 1022.8
20260902185345 18 8 4.8 9.7 0.00 0.00 0.00 82 1023.1
20260902184840 18 95 1.6 1.6 0.00 0.00 0.00 83 1022.9
20260902184335 18 316 1.6 1.6 0.00 0.00 0.00 82 1022.9
20260902183830 18 320 1.6 1.6 0.00 0.00 0.00 83 1022.8
20260902183327 18 239 1.6 3.2 0.00 0.00 0.00 83 1022.9
20260902182822 18 347 1.6 1.6 0.00 0.00 0.00 82 1022.9
20260902182319 18 298 3.2 4.8 0.00 0.00 0.00 82 1022.9
20260902181815 18 287 1.6 1.6 0.00 0.00 0.00 81 1022.9
20260902181310 18 338 0.0 1.6 0.00 0.00 0.00 82 1023.0
20260902180804 19 177 1.6 1.6 0.00 0.00 0.00 83 1023.2
20260902180300 19 281 1.6 1.6 0.00 0.00 0.00 80 1023.2
20260902175755 19 138 1.6 1.6 0.00 0.00 0.00 82 1023.1
20260902175251 19 288 1.6 1.6 0.00 0.00 0.00 82 1023.1
20260902174746 19 249 1.6 3.2 0.00 0.00 0.00 82 1023.0
20260902174242 20 344 1.6 1.6 0.00 0.00 0.00 80 1023.0
20260902173737 19 259 3.2 3.2 0.00 0.00 0.00 81 1022.8
20260902173237 19 247 1.6 3.2 0.00 0.00 0.00 81 1022.9
20260902172731 20 349 3.2 4.8 0.00 0.00 0.00 80 1022.8
20260902172226 20 59 4.8 4.8 0.00 0.00 0.00 79 1022.8
20260902171721 20 37 8.0 9.7 0.00 0.00 0.00 79 1022.7
20260902171216 20 333 1.6 1.6 0.00 0.00 0.00 79 1022.7
20260902170712 20 4 9.7 14.5 0.00 0.00 0.00 77 1022.8
20260902170208 20 137 4.8 4.8 0.00 0.00 0.00 78 1022.7
20260902165702 20 8 1.6 1.6 0.00 0.00 0.00 78 1022.7
20260902165156 20 210 0.0 0.0 0.00 0.00 0.00 79 1022.7
20260902164652 20 323 1.6 1.6 0.00 0.00 0.00 80 1022.9
20260902164150 20 55 6.4 6.4 0.00 0.00 0.00 77 1022.8
20260902163646 20 194 6.4 11.3 0.00 0.00 0.00 77 1022.9
20260902163146 20 255 3.2 3.2 0.00 0.00 0.00 77 1023.0
20260902162644 20 194 3.2 3.2 0.00 0.00 0.00 79 1023.1
20260902162139 20 240 4.8 4.8 0.00 0.00 0.00 76 1023.2
20260902161634 20 199 4.8 4.8 0.00 0.00 0.00 77 1023.3
20260902161130 20 233 0.0 1.6 0.00 0.00 0.00 78 1023.3
20260902160626 20 321 0.0 0.0 0.00 0.00 0.00 78 1023.3
20260902160120 20 202 4.8 4.8 0.00 0.00 0.00 76 1023.3
20260902155613 20 276 0.0 1.6 0.00 0.00 0.00 76 1023.4
20260902155112 20 285 1.6 3.2 0.00 0.00 0.00 77 1023.4
20260902154607 20 243 1.6 1.6 0.00 0.00 0.00 76 1023.4
20260902154103 20 35 1.6 4.8 0.00 0.00 0.00 75 1023.5
20260902153601 20 318 0.0 1.6 0.00 0.00 0.00 75 1023.6
20260902153056 20 333 8.0 11.3 0.00 0.00 0.00 73 1023.7
20260902152553 20 3 1.6 1.6 0.00 0.00 0.00 71 1023.6
20260902152048 20 138 4.8 6.4 0.00 0.00 0.00 72 1023.5
20260902151544 20 6 3.2 4.8 0.00 0.00 0.00 75 1023.5
20260902151043 20 181 3.2 4.8 0.00 0.00 0.00 73 1023.4
20260902150538 20 111 1.6 4.8 0.00 0.00 0.00 77 1023.2
20260902150034 19 41 3.2 3.2 0.00 0.00 0.00 79 1023.2
20260902145529 20 51 1.6 3.2 0.00 0.00 0.00 76 1023.3
20260902145028 20 298 3.2 4.8 0.00 0.00 0.00 77 1023.2
20260902144526 20 333 1.6 3.2 0.00 0.00 0.00 76 1023.2
20260902144025 19 242 3.2 3.2 0.00 0.00 0.00 77 1023.3
20260902143520 20 194 4.8 4.8 0.00 0.00 0.00 77 1023.3
20260902143016 19 228 0.0 0.0 0.00 0.00 0.00 80 1023.4
20260902142512 19 306 1.6 1.6 0.00 0.00 0.00 79 1023.3
20260902142007 19 279 0.0 0.0 0.00 0.00 0.00 81 1023.1
20260902141501 19 319 0.0 0.0 0.00 0.00 0.00 82 1023.0
20260902140956 19 211 1.6 3.2 0.00 0.00 0.00 83 1023.2
20260902140451 18 289 1.6 3.2 0.00 0.00 0.00 85 1023.1
20260902135950 19 351 3.2 3.2 0.00 0.00 0.00 87 1022.8
20260902135446 19 40 1.6 3.2 0.00 0.00 0.00 88 1023.0
20260902134945 18 308 0.0 0.0 0.00 0.00 0.00 89 1022.8
20260902134441 18 45 1.6 3.2 0.00 0.00 0.00 89 1022.8
20260902133936 18 217 1.6 3.2 0.00 0.00 0.00 89 1022.9
20260902133431 18 123 4.8 4.8 0.00 0.00 0.00 90 1023.0
20260902132926 18 328 0.0 1.6 0.00 0.00 0.00 91 1023.0
20260902132421 18 350 3.2 4.8 0.00 0.00 0.00 91 1023.0
20260902131916 18 37 3.2 3.2 0.00 0.00 0.00 90 1023.0
20260902131413 18 359 1.6 3.2 0.00 0.00 0.00 91 1023.0
20260902130912 18 206 3.2 4.8 0.00 0.00 0.00 92 1023.0
20260902130408 17 326 0.0 0.0 0.00 0.00 0.00 94 1022.9
20260902125903 17 299 0.0 0.0 0.00 0.00 0.00 95 1022.9
20260902125359 17 254 1.6 1.6 0.00 0.00 0.00 96 1023.0
20260902124855 17 30 1.6 3.2 0.00 0.00 0.00 97 1023.0
20260902124350 17 324 1.6 1.6 0.00 0.00 0.00 98 1023.0
20260902123845 17 266 0.0 0.0 0.00 0.00 0.00 98 1023.1
20260902123342 16 302 0.0 0.0 0.00 0.00 0.00 99 1022.9
20260902122840 16 314 1.6 1.6 0.00 0.00 0.00 99 1022.9
20260902122336 16 41 3.2 4.8 0.00 0.00 0.00 99 1022.8